Date,TemperatureHighF,TemperatureAvgF,TemperatureLowF,DewpointHighF,DewpointAvgF,DewpointLowF,HumidityHigh,HumidityAvg,HumidityLow,PressureMaxIn,PressureMinIn,WindSpeedMaxMPH,WindSpeedAvgMPH,GustSpeedMaxMPH,PrecipitationSumIn
2012-1-1,47,38,30,29,22,7,80,55,30,30.50,29.96,28,13,30,0.00
2012-1-2,40,29,19,13,9,4,67,44,24,30.60,30.32,19,7,19,0.00
2012-1-3,50,35,25,32,21,11,76,57,41,30.32,29.83,33,13,34,0.00
2012-1-4,58,43,32,33,29,25,79,60,31,30.19,29.95,18,9,18,0.00
2012-1-5,68,46,32,38,32,26,85,60,25,30.01,29.61,26,12,28,0.00
2012-1-6,57,43,33,34,28,18,82,59,23,29.93,29.54,33,11,33,0.00
2012-1-7,42,34,27,27,23,17,75,63,51,30.07,29.93,10,5,11,0.00
2012-1-8,45,37,31,28,25,22,74,62,43,30.16,30.06,16,5,18,0.00
2012-1-9,53,36,25,32,25,20,83,67,38,30.14,29.90,19,8,19,0.00
2012-1-10,56,41,26,31,27,22,85,60,33,29.91,29.55,14,6,14,0.00
2012-1-11,40,33,20,33,25,7,89,72,55,29.95,29.46,40,14,41,0.00
2012-1-12,29,21,16,10,1,-8,73,44,20,30.01,29.92,35,14,35,0.00
2012-1-13,44,29,15,20,11,-5,57,47,37,30.02,29.80,18,6,20,0.00
2012-1-14,47,38,30,24,19,14,61,47,27,30.09,29.79,24,10,28,0.00
2012-1-15,37,36,34,20,19,18,53,50,48,29.95,29.86,28,13,29,0.00
2012-1-16,47,38,25,39,28,12,86,67,50,29.79,29.40,30,11,30,0.00
2012-1-17,27,19,14,14,9,5,78,65,45,30.27,29.79,30,12,33,0.00
2012-1-18,38,27,12,21,14,5,76,59,40,30.23,29.66,41,16,42,0.00
2012-1-19,36,21,12,21,9,4,78,60,42,29.93,29.66,26,10,26,0.00
2012-1-20,28,19,12,14,9,4,74,66,56,30.10,29.71,25,9,25,0.00
2012-1-21,34,21,8,20,11,2,79,65,47,30.10,29.42,33,10,33,0.00
2012-1-22,52,40,30,37,31,20,96,72,46,29.56,29.15,44,20,46,0.21
2012-1-23,51,36,27,32,25,20,84,65,32,29.86,29.55,22,10,24,29.53
2012-1-24,61,43,32,31,25,22,67,50,26,29.95,29.82,26,10,29,0.00
2012-1-25,48,38,29,32,29,26,90,70,47,30.01,29.77,19,6,19,0.00
2012-1-26,55,41,26,32,23,14,89,55,20,29.86,29.75,34,9,35,0.00
2012-1-27,51,39,29,28,24,20,69,55,39,30.14,29.64,34,12,34,0.00
2012-1-28,49,34,20,20,13,5,83,49,19,30.27,30.11,31,12,33,0.00
2012-1-29,58,40,23,28,17,9,65,41,17,30.12,29.84,25,9,25,0.00
2012-1-30,64,49,36,43,32,25,81,55,28,29.84,29.60,31,15,32,0.00
2012-1-31,61,49,36,45,34,25,98,62,28,29.92,29.55,30,9,30,0.00
2012-2-1,63,46,32,30,26,22,76,49,22,30.02,29.91,16,6,16,0.00
2012-2-2,60,46,35,38,26,20,78,49,23,30.04,29.80,22,9,22,0.20
2012-2-3,44,43,40,44,42,38,100,97,79,29.88,29.72,29,12,29,1.04
2012-2-4,41,35,31,41,32,27,100,92,83,30.23,29.84,26,13,26,0.04
2012-2-5,47,35,26,28,24,19,90,68,35,30.31,30.18,19,7,19,0.00
2012-2-6,51,38,24,31,26,21,88,64,33,30.19,30.00,18,6,18,0.00
2012-2-7,43,33,26,35,29,23,94,85,61,30.36,30.02,18,10,21,0.01
2012-2-8,32,28,25,28,24,22,89,84,77,30.38,30.21,12,4,14,10.35
2012-2-9,39,35,31,32,30,27,92,82,72,30.20,29.93,20,7,20,0.00
2012-2-10,32,26,12,30,14,-1,95,65,33,30.43,29.93,30,14,35,0.00
2012-2-11,24,15,7,4,-2,-5,61,49,31,30.67,30.43,28,8,28,0.00
2012-2-12,28,22,12,22,7,-1,88,55,41,30.52,29.88,31,10,31,0.00
2012-2-13,34,30,25,33,28,22,97,92,84,29.88,29.55,35,13,36,0.03
2012-2-14,51,35,22,37,28,19,95,79,50,29.74,29.64,25,8,25,0.00
2012-2-15,42,38,32,41,36,29,100,95,86,30.01,29.63,20,6,21,0.02
2012-2-16,51,35,25,32,26,22,92,73,38,30.18,30.01,17,6,17,0.00
2012-2-17,55,38,32,37,30,27,85,73,49,30.01,29.89,19,10,19,0.00
2012-2-18,42,34,26,29,23,20,86,65,43,30.10,29.96,18,8,24,0.00
2012-2-19,52,40,25,34,26,19,79,61,40,29.97,29.71,24,8,27,0.00
2012-2-20,54,44,38,43,38,31,86,78,59,29.71,29.36,44,18,47,0.05
2012-2-21,56,40,30,31,25,20,76,57,25,29.80,29.55,28,13,28,0.00
2012-2-22,67,51,35,38,31,26,73,50,27,29.55,29.14,31,11,32,0.00
2012-2-23,51,46,33,38,31,21,73,57,39,29.77,29.04,45,15,45,0.00
2012-2-24,50,36,28,24,21,14,78,57,25,30.12,29.77,29,11,29,0.00
2012-2-25,56,41,24,28,22,19,85,54,25,30.15,29.55,48,13,48,0.00
2012-2-26,59,48,38,27,19,6,58,35,12,30.02,29.51,50,15,50,0.00
2012-2-27,49,38,25,22,19,15,69,48,29,30.32,30.02,24,10,24,0.00
2012-2-28,65,53,40,56,40,19,86,64,21,30.02,29.22,42,18,42,0.01
2012-2-29,59,48,34,35,22,13,71,40,21,29.70,29.46,38,14,38,0.00
2012-3-1,63,48,33,34,27,19,71,47,26,29.66,29.35,30,12,30,0.00
2012-3-2,55,43,34,33,22,10,83,49,17,29.84,29.41,26,12,26,0.00
2012-3-3,49,36,21,19,16,12,72,45,24,29.92,29.79,28,8,29,0.00
2012-3-4,67,46,32,32,24,16,62,42,23,30.04,29.72,38,15,39,0.00
2012-3-5,64,48,27,36,27,16,75,45,27,30.10,29.64,39,14,41,0.00
2012-3-6,71,61,53,51,42,31,66,50,34,29.64,29.42,52,28,52,0.00
2012-3-7,66,55,39,53,44,28,79,68,52,29.89,29.41,51,23,51,0.00
2012-3-8,52,38,30,30,21,10,88,56,20,30.36,29.89,26,10,30,0.07
2012-3-9,62,45,28,27,21,16,68,41,17,30.40,30.17,20,9,22,0.00
2012-3-10,62,50,38,34,28,23,66,45,23,30.17,29.87,33,14,34,0.00
2012-3-11,50,47,44,47,42,32,97,86,54,29.87,29.56,25,9,26,0.05
2012-3-12,82,62,45,50,42,26,100,59,14,29.74,29.52,27,11,27,0.01
2012-3-13,79,64,49,58,48,42,88,60,30,29.75,29.59,31,13,31,0.00
2012-3-14,81,68,61,62,57,50,91,70,39,29.71,29.55,35,20,35,0.00
2012-3-15,78,67,62,63,60,55,96,79,45,29.76,29.67,27,11,27,0.00
2012-3-16,76,67,59,65,61,58,100,82,55,29.73,29.58,38,15,39,0.01
2012-3-17,79,69,64,63,61,59,87,75,55,29.58,29.49,48,22,50,0.00
2012-3-18,73,68,62,61,60,58,88,77,65,29.56,29.43,43,22,43,0.00
2012-3-19,68,67,64,60,59,54,79,76,72,29.45,29.38,50,20,50,0.01
2012-3-20,56,53,51,54,51,49,99,94,77,29.64,29.47,19,7,25,0.26
2012-3-21,58,52,46,57,52,45,100,98,94,29.68,29.47,34,7,34,0.82
2012-3-22,55,48,43,49,46,42,99,91,70,29.73,29.63,18,6,18,0.10
2012-3-23,67,55,47,50,47,44,100,78,45,29.79,29.69,16,6,17,0.03
2012-3-24,77,60,45,52,46,39,92,65,29,29.84,29.77,16,6,16,0.00
2012-3-25,77,64,49,56,52,47,95,67,39,29.91,29.74,21,6,22,0.00
2012-3-26,79,67,55,59,54,49,82,65,43,29.77,29.56,35,16,37,0.00
2012-3-27,82,70,61,58,49,39,83,51,26,29.74,29.54,48,11,48,0.00
2012-3-28,78,66,54,64,56,40,92,72,41,29.75,29.59,25,8,26,0.00
2012-3-29,83,70,62,63,60,55,96,73,41,29.59,29.39,39,14,39,0.00
2012-3-30,80,66,52,57,50,39,96,62,23,29.64,29.53,17,7,18,0.00
2012-3-31,84,69,55,61,55,46,86,63,28,29.64,29.44,25,11,25,0.00
2012-4-1,85,73,62,65,62,58,96,69,45,29.44,29.19,28,15,32,0.00
2012-4-2,84,74,58,65,60,49,83,64,41,29.55,29.18,41,17,43,0.00
2012-4-3,70,60,53,55,51,48,87,72,53,29.74,29.53,26,8,28,0.00
2012-4-4,62,55,53,57,54,52,99,96,82,29.65,29.54,29,9,31,1.11
2012-4-5,54,53,48,54,51,47,100,94,82,29.86,29.59,18,7,18,0.04
2012-4-6,64,53,43,52,47,41,99,82,66,29.94,29.75,27,9,27,0.00
2012-4-7,66,58,48,58,44,29,97,63,28,30.16,29.73,29,10,29,0.21
2012-4-8,67,54,42,42,35,27,77,52,26,30.20,29.98,22,7,22,0.00
2012-4-9,70,58,45,53,45,39,82,64,38,30.03,29.89,17,4,17,0.02
2012-4-10,65,53,42,48,35,27,80,54,28,30.06,29.91,17,8,18,0.00
2012-4-11,59,52,46,39,33,26,65,49,36,30.11,29.93,18,9,19,0.00
2012-4-12,61,54,50,55,43,32,92,67,49,29.94,29.55,31,14,31,0.06
2012-4-13,74,66,60,60,49,37,94,58,28,29.60,29.48,37,11,37,0.00
2012-4-14,73,66,56,65,61,46,99,83,62,29.59,29.17,39,14,40,0.00
2012-4-15,71,61,51,66,46,30,91,60,27,29.61,29.15,52,25,55,0.09
2012-4-16,67,55,44,45,40,34,82,58,34,30.01,29.61,29,9,40,0.00
2012-4-17,72,60,45,50,45,40,85,60,41,30.06,29.86,33,12,34,0.00
2012-4-18,79,62,52,58,50,46,86,67,38,29.87,29.60,31,11,34,0.00
2012-4-19,72,63,50,57,52,42,78,67,53,29.74,29.48,46,16,46,0.00
2012-4-20,63,52,46,42,37,31,79,58,31,29.92,29.73,29,12,29,0.00
2012-4-21,76,58,41,47,39,32,73,51,30,29.89,29.74,27,9,27,0.00
2012-4-22,66,55,45,42,34,28,69,47,26,30.06,29.84,30,10,30,0.00
2012-4-23,72,56,40,44,37,28,79,51,24,30.07,29.74,16,5,17,0.00
2012-4-24,93,67,50,60,48,43,81,55,20,29.74,29.30,28,14,29,0.00
2012-4-25,92,75,61,56,50,44,67,44,24,29.57,29.28,22,10,26,0.00
2012-4-26,80,68,56,59,49,43,70,51,34,29.72,29.57,17,6,19,0.00
2012-4-27,82,67,58,66,55,42,89,66,26,29.65,29.17,42,19,42,0.01
2012-4-28,70,60,46,52,49,45,95,70,45,29.79,29.52,20,9,22,0.00
2012-4-29,64,57,53,60,55,50,100,92,76,29.79,29.71,20,7,21,0.16
2012-4-30,74,61,54,62,57,53,100,88,63,29.82,29.49,33,5,37,0.12
2012-5-1,82,69,59,68,62,57,94,79,58,29.56,29.35,37,14,39,0.00
2012-5-2,84,75,66,69,66,62,88,73,56,29.48,29.35,33,15,35,0.00
2012-5-3,85,75,69,68,66,64,88,74,50,29.57,29.44,37,11,37,0.00
2012-5-4,93,78,67,69,66,53,96,70,27,29.57,29.46,30,8,32,0.00
2012-5-5,88,78,67,69,66,63,92,70,47,29.54,29.44,29,12,29,0.00
2012-5-6,77,72,61,70,63,54,91,76,59,29.77,29.45,28,14,28,0.00
2012-5-7,70,60,51,55,43,33,89,56,27,29.95,29.77,28,12,29,0.05
2012-5-8,76,61,46,48,38,29,81,47,19,29.93,29.80,22,6,25,0.00
2012-5-9,77,61,43,46,39,34,81,48,23,29.92,29.72,14,4,14,0.00
2012-5-10,86,70,54,52,47,42,74,48,23,29.72,29.56,27,11,28,0.00
2012-5-11,77,65,55,58,52,48,93,65,37,29.96,29.64,19,6,19,0.31
2012-5-12,68,57,48,50,47,43,93,71,49,30.12,29.96,21,8,22,0.03
2012-5-13,76,61,48,50,46,39,92,64,28,30.09,29.94,14,4,16,0.00
2012-5-14,82,68,54,53,48,44,81,53,28,29.97,29.79,16,5,19,0.00
2012-5-15,91,72,55,56,49,38,82,49,16,29.84,29.72,19,7,19,0.00
2012-5-16,84,68,52,50,42,38,61,42,23,29.89,29.74,17,8,17,0.00
2012-5-17,90,76,59,54,48,39,69,41,18,29.75,29.52,34,14,34,0.00
2012-5-18,90,76,66,58,53,45,66,47,23,29.56,29.43,38,14,39,0.00
2012-5-19,87,76,63,64,58,53,71,54,38,29.77,29.40,39,18,40,0.00
2012-5-20,78,64,55,53,47,38,87,60,25,30.00,29.77,26,9,26,0.00
2012-5-21,80,65,50,47,42,36,77,48,21,30.08,29.86,21,6,21,0.00
2012-5-22,85,68,52,51,46,42,73,48,25,29.86,29.44,31,12,33,0.00
2012-5-23,93,80,68,59,55,50,64,43,27,29.44,29.11,51,19,51,0.00
2012-5-24,88,76,64,63,53,44,73,47,23,29.50,29.05,28,10,30,0.00
2012-5-25,89,74,67,70,62,46,96,68,43,29.63,29.49,28,12,30,0.00
2012-5-26,97,84,76,69,66,59,78,59,31,29.61,29.50,37,17,38,0.00
2012-5-27,92,81,72,66,63,60,73,55,36,29.57,29.38,47,24,47,0.00
2012-5-28,91,79,66,61,44,25,80,37,10,29.61,29.39,35,11,36,0.00
2012-5-29,86,73,56,48,44,37,63,37,24,29.75,29.59,21,10,21,0.00
2012-5-30,89,70,58,62,53,46,96,60,28,29.72,29.42,27,9,28,0.40
2012-5-31,67,59,51,60,47,41,97,67,40,29.88,29.63,28,13,32,0.00
2012-6-1,62,52,44,50,45,42,92,78,54,29.88,29.73,18,4,18,0.01
2012-6-2,88,66,49,57,51,46,95,64,26,29.77,29.57,17,5,17,0.00
2012-6-3,88,74,66,65,60,56,84,65,37,29.63,29.52,21,8,22,0.00
2012-6-4,95,78,64,68,60,47,94,61,21,29.69,29.57,22,5,22,0.00
2012-6-5,89,76,64,62,55,49,82,52,27,29.70,29.58,22,7,22,0.00
2012-6-6,87,74,58,57,53,47,85,52,26,29.76,29.64,28,10,28,0.00
2012-6-7,70,69,69,56,56,55,63,62,60,29.78,29.76,11,8,12,0.00
2012-6-8,88,75,60,58,52,46,82,50,24,29.83,29.60,25,9,25,0.00
2012-6-9,91,79,66,63,57,52,65,49,32,29.63,29.36,35,15,36,0.00
2012-6-10,93,82,73,68,64,61,72,56,40,29.50,29.34,38,14,39,0.00
2012-6-11,87,77,63,62,50,36,86,46,19,29.84,29.50,22,9,24,0.00
2012-6-12,87,74,59,54,49,44,71,44,23,29.95,29.78,24,7,25,0.00
2012-6-13,91,77,60,63,56,50,75,50,29,29.84,29.58,34,13,34,0.00
2012-6-14,95,80,65,69,65,61,95,63,38,29.71,29.41,39,15,39,1.03
2012-6-15,86,74,63,66,63,60,99,73,43,29.75,29.49,17,4,24,0.47
2012-6-16,88,77,65,70,65,62,95,70,42,29.77,29.67,27,7,53,0.13
2012-6-17,92,81,69,71,65,57,94,61,31,29.77,29.39,38,13,40,0.00
2012-6-18,95,83,72,68,65,63,79,58,38,29.43,29.35,44,23,44,0.00
2012-6-19,91,82,74,68,66,63,73,58,42,29.49,29.42,43,21,43,0.00
2012-6-20,87,78,65,68,67,64,95,68,52,29.75,29.47,41,19,41,0.11
2012-6-21,84,70,61,64,58,45,98,71,27,29.93,29.73,21,8,22,0.42
2012-6-22,88,76,63,60,55,48,79,52,27,29.85,29.65,25,9,25,0.00
2012-6-23,97,83,69,66,62,57,74,51,27,29.69,29.48,40,16,42,0.00
2012-6-24,102,88,76,66,63,57,65,45,24,29.61,29.54,34,17,35,0.00
2012-6-25,107,88,72,73,64,52,76,49,17,29.68,29.55,21,7,24,0.00
2012-6-26,105,86,73,73,67,56,88,59,21,29.58,29.42,29,11,29,0.00
2012-6-27,106,93,81,69,64,55,59,41,20,29.56,29.44,40,20,40,0.00
2012-6-28,105,88,74,69,62,48,72,45,15,29.66,29.55,32,14,33,0.00
2012-6-29,102,92,78,62,58,53,53,33,20,29.63,29.47,32,15,32,0.00
2012-6-30,103,87,77,64,61,55,59,43,23,29.65,29.48,32,14,32,0.00
2012-7-1,97,84,76,67,63,58,62,50,32,29.67,29.56,26,10,26,0.00
2012-7-2,97,86,74,68,63,57,76,50,29,29.70,29.58,33,12,33,0.00
2012-7-3,99,88,75,67,62,58,69,46,27,29.64,29.52,31,14,31,0.00
2012-7-4,100,89,77,65,60,55,55,39,23,29.62,29.53,35,17,35,0.00
2012-7-5,102,90,77,63,60,54,58,39,21,29.68,29.59,28,12,28,0.00
2012-7-6,103,90,79,62,60,53,54,38,21,29.71,29.63,27,12,27,0.00
2012-7-7,106,90,74,68,58,50,79,39,16,29.80,29.66,37,9,38,0.38
2012-7-8,87,79,72,73,68,64,89,71,48,29.87,29.73,25,9,25,0.06
2012-7-9,79,75,73,70,66,58,91,73,50,29.88,29.79,25,7,25,0.00
2012-7-10,90,80,70,65,60,48,80,55,26,29.88,29.78,24,9,24,0.00
2012-7-11,95,76,61,63,56,47,80,52,23,29.86,29.72,16,5,16,0.00
2012-7-12,98,82,69,64,59,49,82,52,21,29.75,29.66,17,3,17,0.00
2012-7-13,99,85,73,63,59,54,63,43,24,29.75,29.65,25,7,25,0.00
2012-7-14,103,85,67,65,59,46,80,47,18,29.79,29.66,14,4,16,0.00
2012-7-15,99,86,72,66,59,51,79,44,23,29.75,29.64,22,9,22,0.00
2012-7-16,96,84,72,68,62,56,78,50,28,29.70,29.54,27,9,27,0.00
2012-7-17,101,88,76,64,59,53,66,40,22,29.59,29.49,32,13,33,0.00
2012-7-18,105,92,80,64,59,53,51,36,19,29.64,29.52,33,15,33,0.00
2012-7-19,104,89,76,62,59,54,59,39,21,29.75,29.61,27,8,27,0.00
2012-7-20,103,87,76,63,58,46,60,41,16,29.80,29.72,20,8,20,0.00
2012-7-21,104,87,67,63,52,38,73,37,12,29.82,29.70,18,8,24,0.00
2012-7-22,104,90,72,58,55,50,57,33,18,29.77,29.69,24,8,24,0.00
2012-7-23,102,88,74,64,58,51,54,37,20,29.77,29.65,28,9,28,0.00
2012-7-24,102,91,79,64,60,55,57,38,22,29.68,29.49,32,15,34,0.00
2012-7-25,105,89,72,70,62,54,93,44,20,29.55,29.36,49,17,49,0.07
2012-7-26,98,83,72,70,65,57,92,58,27,29.66,29.48,20,4,21,0.00
2012-7-27,98,84,73,66,60,54,79,47,25,29.79,29.66,18,7,18,0.00
2012-7-28,104,88,70,64,58,53,68,40,20,29.81,29.64,28,12,28,0.00
2012-7-29,109,92,75,68,62,52,77,41,17,29.75,29.55,30,9,32,0.06
2012-7-30,98,87,76,67,61,54,66,44,25,29.69,29.57,27,9,29,0.00
2012-7-31,83,78,75,67,65,62,75,65,51,29.69,29.64,13,7,13,0.00
2012-8-1,102,86,72,68,62,55,88,48,22,29.76,29.50,26,8,36,0.03
2012-8-2,93,83,72,68,64,60,76,55,35,29.60,29.44,37,10,37,0.00
2012-8-3,102,83,72,70,66,58,92,61,24,29.60,29.45,26,6,26,0.07
2012-8-4,84,78,69,69,62,54,75,58,48,29.86,29.43,28,10,28,0.00
2012-8-5,92,76,59,58,52,45,85,48,21,30.01,29.86,17,5,18,0.00
2012-8-6,100,84,65,56,50,42,58,34,18,29.91,29.68,19,8,20,0.00
2012-8-7,83,80,76,54,48,45,40,33,27,29.74,29.69,20,7,20,0.00
2012-8-8,104,87,68,62,55,33,77,39,9,29.75,29.59,25,7,25,0.00
2012-8-9,87,77,66,64,56,49,79,50,28,29.80,29.65,27,10,28,0.00
2012-8-10,86,74,62,57,51,42,81,49,23,29.89,29.77,21,7,21,0.00
2012-8-11,91,74,59,53,48,39,72,45,17,29.85,29.65,20,6,20,0.00
2012-8-12,91,80,69,58,52,43,60,40,26,29.75,29.62,22,11,27,0.01
2012-8-13,83,71,58,58,54,49,85,58,32,29.90,29.75,17,9,24,0.00
2012-8-14,76,67,62,63,60,55,99,78,55,29.85,29.68,16,7,28,0.47
2012-8-15,94,77,60,67,63,58,93,66,37,29.70,29.49,29,10,29,0.00
2012-8-16,81,72,64,67,54,47,70,54,37,29.92,29.55,30,12,30,0.00
2012-8-17,82,70,56,52,46,40,81,46,24,29.93,29.76,13,4,14,0.00
2012-8-18,87,72,62,52,46,43,55,41,27,29.80,29.63,20,6,20,0.00
2012-8-19,81,66,56,52,46,38,83,53,23,29.86,29.73,20,8,20,0.00
2012-8-20,90,74,57,47,42,39,61,34,18,29.85,29.71,16,4,16,0.00
2012-8-21,93,78,60,51,44,40,55,32,16,29.82,29.74,21,8,22,0.00
2012-8-22,91,79,66,60,51,44,75,41,20,29.82,29.67,37,13,37,0.00
2012-8-23,93,81,71,67,56,49,84,44,29,29.72,29.59,39,16,40,0.08
2012-8-24,78,70,64,69,66,62,98,87,69,29.70,29.56,31,13,31,0.38
2012-8-25,80,72,67,72,69,63,100,92,69,29.66,29.57,27,7,27,1.04
2012-8-26,82,74,69,71,67,65,100,82,58,29.85,29.64,15,5,16,0.01
2012-8-27,91,78,66,69,64,56,97,67,32,29.94,29.82,13,4,13,0.00
2012-8-28,94,80,65,62,56,48,76,47,21,29.91,29.75,18,7,18,0.00
2012-8-29,95,81,68,61,56,51,65,45,24,29.80,29.65,20,8,21,0.00
2012-8-30,98,81,71,59,55,42,65,44,16,29.73,29.62,20,6,20,0.00
2012-8-31,91,79,66,66,61,54,78,57,34,29.73,29.66,24,5,24,0.00
2012-9-1,93,79,66,68,64,58,94,65,34,29.80,29.68,14,5,16,0.00
2012-9-2,102,82,68,68,63,48,91,59,17,29.72,29.56,21,6,21,0.00
2012-9-3,106,84,72,70,65,53,83,57,19,29.61,29.52,21,9,21,0.00
2012-9-4,100,82,70,75,66,53,97,65,21,29.66,29.50,41,6,41,0.21
2012-9-5,90,75,66,67,63,56,94,70,34,29.69,29.53,21,7,22,0.00
2012-9-6,96,79,62,63,58,53,78,52,28,29.77,29.54,25,6,25,0.00
2012-9-7,80,68,59,62,55,48,93,64,42,29.92,29.54,31,11,31,0.21
2012-9-8,82,66,50,51,46,37,89,55,22,30.03,29.84,19,7,19,0.00
2012-9-9,77,66,55,49,45,39,72,50,27,30.01,29.83,18,7,18,0.00
2012-9-10,89,69,53,52,48,42,83,53,20,29.92,29.70,29,11,29,0.00
2012-9-11,93,78,62,50,46,43,61,36,18,29.72,29.60,40,15,40,0.00
2012-9-12,93,76,58,64,53,48,79,46,27,29.92,29.60,37,14,38,0.34
2012-9-13,58,56,53,56,53,50,97,91,79,30.21,29.92,30,13,30,0.22
2012-9-14,72,59,48,50,45,40,94,64,32,30.21,30.08,18,6,18,0.00
2012-9-15,70,60,50,62,53,44,95,79,67,30.08,29.89,11,3,11,0.00
2012-9-16,78,68,62,62,59,54,97,76,45,29.89,29.70,14,4,14,0.00
2012-9-17,68,62,54,61,56,47,97,82,67,29.89,29.66,28,8,28,0.00
2012-9-18,77,58,46,48,45,38,94,67,29,29.94,29.75,24,5,25,0.00
2012-9-19,91,70,58,51,46,39,65,46,23,29.76,29.58,31,15,32,0.00
2012-9-20,79,64,50,46,40,28,69,43,17,29.85,29.71,17,6,17,0.00
2012-9-21,84,70,56,47,41,36,66,37,20,29.74,29.65,27,9,27,0.00
2012-9-22,71,60,52,42,33,24,65,38,20,30.06,29.74,24,9,24,0.00
2012-9-23,53,49,46,35,29,27,62,47,37,30.09,30.04,12,6,14,0.00
2012-9-24,83,65,49,56,47,36,69,54,31,29.94,29.56,16,7,20,0.00
2012-9-25,79,67,58,60,56,53,83,68,47,29.65,29.54,29,5,30,0.01
2012-9-26,70,65,60,64,62,59,99,90,72,29.91,29.59,27,6,28,0.54
2012-9-27,73,62,56,61,58,56,100,88,61,29.97,29.87,14,4,17,0.01
2012-9-28,72,62,57,62,56,46,100,82,41,29.98,29.88,17,5,17,0.01
2012-9-29,73,62,52,54,49,41,98,66,35,29.96,29.83,17,4,17,0.00
2012-9-30,77,64,52,51,47,38,90,57,26,29.83,29.69,10,3,10,0.00
2012-10-1,69,58,50,56,49,44,82,72,52,29.81,29.69,32,10,35,0.01
2012-10-2,74,57,42,46,39,31,84,56,22,29.84,29.68,15,6,16,0.00
2012-10-3,81,66,47,51,43,37,73,46,26,29.72,29.58,34,13,34,0.00
2012-10-4,70,55,48,52,40,33,72,57,41,30.09,29.70,27,12,30,0.00
2012-10-5,52,48,41,34,32,27,72,54,39,30.15,30.06,28,10,28,0.00
2012-10-6,46,43,40,36,30,25,79,61,44,30.22,30.12,17,5,18,0.00
2012-10-7,54,41,28,35,30,26,94,66,39,30.19,29.95,21,7,21,0.00
2012-10-8,70,52,37,36,32,29,76,51,23,29.95,29.69,32,14,34,0.00
2012-10-9,63,53,43,43,37,24,72,54,36,29.99,29.62,34,13,34,0.00
2012-10-10,66,48,35,31,27,23,73,48,22,30.11,29.88,16,5,16,0.00
2012-10-11,80,63,48,52,42,30,58,48,37,29.95,29.74,27,10,27,0.00
2012-10-12,60,52,47,59,43,33,100,73,45,30.06,29.74,27,10,28,0.13
2012-10-13,79,66,58,68,63,55,100,90,66,29.74,29.32,32,11,32,0.37
2012-10-14,75,62,54,57,46,38,93,59,28,29.84,29.37,27,12,27,0.00
2012-10-15,84,65,49,52,46,42,78,53,25,29.80,29.51,27,9,29,0.00
2012-10-16,81,68,58,55,45,40,62,45,24,29.51,29.23,31,12,31,0.00
2012-10-17,68,61,48,56,44,23,86,58,22,29.58,29.17,37,12,37,0.02
2012-10-18,64,54,42,29,25,18,57,34,20,29.63,29.53,44,19,45,0.00
2012-10-19,64,54,45,34,28,22,49,38,25,29.71,29.60,32,13,32,0.00
2012-10-20,83,62,43,50,35,27,63,40,17,29.62,29.42,21,8,21,0.00
2012-10-21,85,66,56,65,57,50,97,74,45,29.50,29.39,25,9,25,0.00
2012-10-22,73,61,53,66,58,52,100,90,77,29.62,29.39,29,8,29,0.00
2012-10-23,86,70,53,66,57,45,100,69,27,29.60,29.40,33,11,33,0.00
2012-10-24,78,70,61,66,60,55,89,73,49,29.51,29.41,34,15,38,0.00
2012-10-25,60,44,33,57,37,27,96,76,49,30.19,29.39,33,15,33,0.06
2012-10-26,44,37,31,28,25,23,79,63,45,30.39,30.19,27,9,27,0.00
2012-10-27,47,36,27,28,25,21,86,66,44,30.26,30.07,14,3,14,0.00
2012-10-28,55,44,30,31,28,24,81,55,34,30.15,30.00,17,7,22,0.00
2012-10-29,67,51,40,33,29,25,59,44,25,30.01,29.81,34,12,34,0.00
2012-10-30,67,56,43,38,35,32,66,46,31,29.83,29.71,18,6,18,0.00
2012-10-31,69,52,36,38,35,29,85,55,29,29.90,29.77,12,4,12,0.00
2012-11-1,78,59,44,42,38,34,71,48,21,29.83,29.68,17,7,18,0.00
2012-11-2,74,58,45,46,41,32,75,55,29,29.85,29.57,24,10,25,0.00
2012-11-3,60,47,35,39,35,31,87,64,41,30.05,29.85,18,5,18,0.00
2012-11-4,68,48,38,39,35,31,83,65,26,30.01,29.84,30,9,30,0.00
2012-11-5,54,46,37,42,36,33,88,71,55,29.98,29.83,27,10,28,0.00
2012-11-6,65,49,37,38,30,21,91,56,20,29.96,29.87,28,10,30,0.00
2012-11-7,61,47,35,30,25,22,61,43,27,30.03,29.84,14,6,14,0.00
2012-11-8,73,58,44,46,38,29,74,48,33,29.81,29.57,27,12,38,0.00
2012-11-9,79,63,50,58,51,43,93,67,40,29.58,29.42,36,12,38,0.00
2012-11-10,74,67,48,57,55,44,89,65,54,29.48,29.31,52,24,52,0.40
2012-11-11,48,33,25,44,22,14,89,66,39,30.13,29.47,28,12,28,0.00
2012-11-12,50,35,23,23,17,12,80,51,23,30.27,30.13,27,8,27,0.00
2012-11-13,55,41,30,31,26,20,77,56,30,30.22,30.09,27,10,27,0.00
2012-11-14,56,43,31,31,28,24,75,57,33,30.17,30.02,24,7,26,0.00
2012-11-15,56,44,34,36,32,28,79,65,40,30.22,30.00,12,3,12,0.00
2012-11-16,61,45,30,39,32,26,91,64,33,30.27,30.11,20,5,20,0.00
2012-11-17,61,50,42,35,32,28,67,51,35,30.11,29.95,38,14,42,0.00
2012-11-18,62,52,45,39,33,28,58,48,40,29.98,29.80,35,16,42,0.00
2012-11-19,70,54,43,46,40,37,89,63,31,29.95,29.81,31,10,31,0.00
2012-11-20,67,51,37,40,36,32,83,59,31,30.06,29.95,17,5,18,0.00
2012-11-21,73,60,47,47,43,38,72,55,31,29.97,29.64,42,19,43,0.00
2012-11-22,71,60,40,52,43,28,66,55,27,30.14,29.54,44,16,44,0.00
2012-11-23,42,35,28,28,17,12,62,48,33,30.42,30.14,27,10,27,0.00
2012-11-24,57,41,25,25,20,15,68,46,27,30.25,29.66,42,14,42,0.00
2012-11-25,56,44,33,34,28,23,74,54,37,29.87,29.65,24,9,25,0.00
2012-11-26,42,32,22,27,24,17,87,73,49,30.33,29.86,32,12,32,0.00
2012-11-27,45,29,16,26,20,13,87,72,45,30.32,30.07,33,7,33,0.00
2012-11-28,56,39,24,33,27,20,85,64,35,30.21,29.90,20,5,20,0.00
2012-11-29,61,46,35,40,36,31,86,68,44,29.90,29.74,24,7,24,0.00
2012-11-30,60,45,31,46,36,27,96,72,43,29.92,29.71,14,5,14,0.00
2012-12-1,63,55,44,57,51,43,100,88,63,29.73,29.57,19,5,19,0.00
2012-12-2,66,52,40,46,42,36,97,71,41,29.85,29.52,21,6,21,0.00
2012-12-3,62,58,45,55,44,30,81,61,32,29.92,29.38,37,15,37,0.00
2012-12-4,62,46,32,32,24,19,73,45,20,30.14,29.92,19,6,19,0.00
2012-12-5,60,48,38,26,23,18,55,38,19,30.10,29.72,34,13,34,0.00
2012-12-6,51,48,45,44,38,26,85,70,45,29.72,29.66,21,9,25,0.00
2012-12-7,44,38,31,36,32,26,91,79,69,29.82,29.69,10,4,12,0.00
2012-12-8,46,36,26,41,32,24,96,84,61,29.83,29.66,16,6,18,0.00
2012-12-9,42,31,17,42,20,5,99,67,43,30.06,29.67,30,13,32,0.00
2012-12-10,34,20,6,4,2,-1,73,48,25,30.08,29.84,26,7,26,0.00
2012-12-11,45,31,18,20,12,3,57,46,33,29.98,29.85,19,6,19,0.00
2012-12-12,52,38,30,16,15,13,53,40,23,29.94,29.81,39,20,39,0.00
2012-12-13,55,44,34,27,22,18,59,42,27,29.90,29.80,28,13,35,0.00
2012-12-14,57,47,42,45,36,26,95,64,50,29.82,29.25,35,15,36,0.04
2012-12-15,57,48,37,46,41,36,96,79,56,29.55,29.20,25,10,30,0.00
2012-12-16,37,34,31,36,34,30,99,98,96,29.58,29.55,10,5,10,0.00
2012-12-17,53,38,26,33,28,23,98,72,32,29.66,29.41,27,9,30,0.00
2012-12-18,58,44,30,31,26,18,80,54,22,29.59,29.40,26,12,26,0.00
2012-12-19,44,40,29,37,32,26,99,74,54,29.64,29.28,45,14,45,0.03
2012-12-20,34,27,22,30,21,14,100,79,51,30.16,29.49,45,18,45,0.00
2012-12-21,30,21,19,21,14,11,76,72,65,30.20,30.13,11,6,13,0.02
2012-12-22,47,34,24,28,22,16,76,63,42,30.01,29.76,12,5,16,0.00
2012-12-23,29,22,16,23,18,13,89,81,72,29.91,29.79,11,7,17,0.00
2012-12-24,23,18,14,14,11,8,85,73,61,30.01,29.90,18,10,26,0.00
2012-12-25,18,15,10,12,7,3,78,69,56,30.22,30.00,24,15,33,0.00
2012-12-26,24,14,4,10,6,0,82,70,53,30.22,30.00,11,4,13,0.00
2012-12-27,32,25,16,22,18,10,84,75,59,29.97,29.73,20,8,27,0.00
2012-12-28,27,22,12,22,13,7,84,71,52,30.05,29.82,24,9,24,0.00
2012-12-29,12,11,10,7,6,6,81,80,80,30.07,30.05,7,3,7,0.00
2012-12-30,47,36,26,22,19,15,66,50,30,30.13,29.88,36,18,47,0.00
2012-12-31,36,27,21,27,22,20,97,84,53,30.05,29.86,16,9,21,0.00
2013-1-1,24,19,11,20,16,8,94,87,79,30.20,30.05,11,6,18,0.02